Change the Weather History Date:

Friday, November 25, 2011

  Actual Average Record
Temperature  
Mean Temperature 50 °F 37 °F  
Max Temperature 61 °F 46 °F 66 °F (2006)
Min Temperature 39 °F 28 °F 12 °F (2005)
Degree Days  
Heating Degree Days 15 28  
Month to date heating degree days 442 555  
Since 1 July heating degree days 885 1016  
Cooling Degree Days 0 0  
Month to date cooling degree days 0 0  
Year to date cooling degree days 1222 944  
Moisture  
Dew Point 42 °F    
Average Humidity 78    
Maximum Humidity 100    
Minimum Humidity 55    
Precipitation  
Precipitation 0.00 in 0.12 in 0.51 in (2000)
Month to date precipitation 3.52 2.91  
Year to date precipitation 28.61 36.61  
Sea Level Pressure  
Sea Level Pressure 30.05 in    
Wind  
Wind Speed 18 mph (South)    
Max Wind Speed 28 mph    
Max Gust Speed 36 mph    
Visibility 6 miles    
Events      
T = Trace of Precipitation, MM = Missing Value Source: NWS Daily Summary

Daily Weather History Graph

Daily Weather History Graph

Search for Another Location

Airport or City:

Trip Planner

Search our weather history database for the weather conditions in past years. The results will help you decide how hot, cold, wet, or windy it might be!

Date:

Astronomy

Nov. 25, 2011 Rise Set
Actual Time 6:49 AM CST 4:30 PM CST
Civil Twilight 6:19 AM CST 5:00 PM CST
Nautical Twilight 5:46 AM CST 5:33 PM CST
Astronomical Twilight 5:13 AM CST 6:05 PM CST
Moon 7:16 AM CST (11/25) 4:57 PM CST (11/25)
Length of Visible Light 10h 40m
Length of Day
9h 41m
New Moon, 0% of the Moon is Illuminated
Nov 25
New Moon
Dec 2
First Quarter
Dec 10
Full
Dec 17
Last Quarter
Dec 24
New

Hourly Weather History & Observations

Time (CST) Temp. Windchill Dew Point Humidity Pressure Visibility Wind Dir Wind Speed Gust Speed Precip Events Conditions
12:53 AM 41.0 °F 33.9 °F 39.2 °F 93% 30.14 in 4.0 mi South 12.7 mph - N/A   Overcast
1:53 AM 41.0 °F 33.1 °F 39.2 °F 93% 30.13 in 3.0 mi South 15.0 mph - N/A   Overcast
2:27 AM 39.2 °F 30.8 °F 39.2 °F 100% 30.13 in 2.0 mi South 15.0 mph - N/A   Overcast
2:53 AM 39.9 °F 32.1 °F 39.0 °F 97% 30.14 in 1.5 mi South 13.8 mph - N/A   Overcast
3:15 AM 39.2 °F 30.8 °F 39.2 °F 100% 30.12 in 2.5 mi South 15.0 mph 21.9 mph N/A   Overcast
3:53 AM 39.9 °F 31.8 °F 39.0 °F 97% 30.13 in 2.5 mi South 15.0 mph 20.7 mph N/A   Overcast
4:02 AM 39.2 °F 31.2 °F 39.2 °F 100% 30.11 in 3.0 mi South 13.8 mph 20.7 mph N/A   Overcast
4:53 AM 39.9 °F 31.4 °F 37.9 °F 93% 30.12 in 4.0 mi South 16.1 mph - N/A   Overcast
5:53 AM 39.2 °F 31.6 °F 37.4 °F 93% 30.10 in 4.0 mi South 12.7 mph - N/A   Mostly Cloudy
6:53 AM 41.0 °F 33.1 °F 39.9 °F 96% 30.12 in 3.0 mi South 15.0 mph - N/A   Overcast
7:07 AM 41.0 °F 33.5 °F 39.2 °F 93% 30.10 in 3.0 mi South 13.8 mph - N/A   Overcast
7:38 AM 42.8 °F 34.5 °F 39.2 °F 87% 30.08 in 3.0 mi South 18.4 mph 24.2 mph N/A   Mostly Cloudy
7:53 AM 43.0 °F 34.8 °F 42.1 °F 97% 30.10 in 4.0 mi South 18.4 mph - N/A   Mostly Cloudy
8:10 AM 44.6 °F 37.4 °F 42.8 °F 93% 30.09 in 4.0 mi South 16.1 mph - N/A   Scattered Clouds
8:53 AM 46.9 °F - 44.1 °F 90% 30.10 in 6.0 mi South 19.6 mph 26.5 mph N/A   Clear
10:53 AM 55.0 °F - 46.0 °F 72% 30.06 in 10.0 mi SSW 23.0 mph 33.4 mph N/A   Clear
11:53 AM 57.0 °F - 46.0 °F 67% 30.03 in 10.0 mi South 23.0 mph 32.2 mph N/A   Clear
1:53 PM 60.1 °F - 44.1 °F 55% 29.96 in 10.0 mi SSW 25.3 mph 35.7 mph N/A   Clear
2:53 PM 59.0 °F - 44.1 °F 58% 29.96 in 10.0 mi South 23.0 mph 28.8 mph N/A   Clear
3:53 PM 57.0 °F - 45.0 °F 64% 29.96 in 10.0 mi South 19.6 mph - N/A   Clear
4:53 PM 54.0 °F - 44.1 °F 69% 29.96 in 10.0 mi South 16.1 mph - N/A   Clear
5:53 PM 53.1 °F - 44.1 °F 71% 29.96 in 10.0 mi South 15.0 mph - N/A   Clear
6:53 PM 52.0 °F - 44.1 °F 74% 29.97 in 10.0 mi South 16.1 mph - N/A   Clear
7:53 PM 51.1 °F - 44.1 °F 77% 29.98 in 10.0 mi South 17.3 mph - N/A   Clear
8:53 PM 51.8 °F - 42.8 °F 71% 29.97 in 10.0 mi South 15.0 mph - N/A   Clear
9:53 PM 50.0 °F - 43.0 °F 77% 29.98 in 10.0 mi South 13.8 mph - N/A   Clear
10:53 PM 50.0 °F - 42.8 °F 76% 29.98 in 10.0 mi South 13.8 mph - N/A   Clear